Regional Weather Roundup
Issued by NWS

Home | Current Version | Previous Version | Graphics & Text | Print | Product List | Glossary Off
Versions: 1 2 3 4 5 6 7 8 9 10 11 12 13 14 15 16 17 18 19 20 21 22 23 24 25 26 27 28 29 30 31 32 33 34 35 36 37 38 39 40 41 42 43 44 45 46 47 48 49 50

000
ASUS43 KMPX 281610
RWRMN
WEATHER ROUNDUP FOR MINNESOTA
NATIONAL WEATHER SERVICE TWIN CITIES/CHANHASSEN MN
1000 AM CST SAT FEB 28 2015


NOTE: "FAIR" INDICATES FEW OR NO CLOUDS BELOW 12,000 FEET WITH NO
SIGNIFICANT WEATHER AND/OR OBSTRUCTIONS TO VISIBILITY. N/A MEANS
CURRENT SKY AND/OR WEATHER CONDITIONS ARE NOT AVAILABLE.

MNZ060>063-068>070-281700-
   Twin Cities Metro

CITY           SKY/WX    TMP DP  RH WIND       PRES   REMARKS
TWIN CITIES    MOSUNNY   11  -1  58 S9        30.51F WCI  -2
ST PAUL        SUNNY     10   1  67 SE8       30.54F WCI  -2
CRYSTAL        SUNNY     13   1  59 S8        30.49F WCI   2
BLAINE         MOSUNNY   14   3  62 S10       30.49  WCI   1
LAKEVILLE      SUNNY      7   0  72 S9        30.51F WCI  -7
EDEN PRAIRIE   SUNNY     11   1  64 S10       30.49F WCI  -3
SOUTH ST PAUL  SUNNY     10   1  65 S10       30.53F WCI  -4
LAKE ELMO      FAIR       9   1  72 S10       30.53F WCI  -6
$$
MNZ001>005-007-008-013>017-022>024-027-028-281700-
   Northwest Minnesota

CITY           SKY/WX    TMP DP  RH WIND       PRES   REMARKS
BEMIDJI        MOSUNNY    7  -2  66 S9        30.26S WCI  -7
HALLOCK        PTSUNNY    9   1  72 S18       30.19S WCI -10
ROSEAU         PTSUNNY   12   3  67 S13       30.20F WCI  -3
WARROAD        PTSUNNY   12   1  62 SW12      30.21S WCI  -2
THIEF RVR FALL CLOUDY    10   3  72 S14       30.21F WCI  -5
CROOKSTON      MOSUNNY   12   7  79 S23       30.24S WCI  -7
FOSSTON        MOSUNNY   12   1  62 S18       30.24R WCI  -5
DETROIT LAKES  SUNNY     12   3  67 S13       30.26F WCI  -3
MOORHEAD       SUNNY     12   5  73 S22       30.27S WCI  -7
PARK RAPIDS    FAIR       8   0  69 S10       30.28F WCI  -6
MAHNOMEN       FAIR      13   4  67 S18       30.25S WCI  -4
$$
MNZ006-009>011-018-025>026-281700-
   North Central Minnesota

CITY           SKY/WX    TMP DP  RH WIND       PRES   REMARKS
BAUDETTE       MOSUNNY   10  -1  61 S8        30.21F WCI  -2
FLAG ISLAND    MOSUNNY    1  -4  78 S10       30.20F WCI -14
INTL FALLS     MOSUNNY   10  -1  61 S5        30.27S WCI   2
WASKISH        MOSUNNY   16   1  53 CALM      30.24S
BIG FORK       PTSUNNY   10   0  61 S9        30.30S WCI  -2
LONGVILLE      PTSUNNY    9   0  66 SE8       30.33S WCI  -4
GRAND RAPIDS   PTSUNNY    7   0  72 S14       30.33S WCI -10
CRANE LAKE     PTSUNNY    9  -2  61 S6        30.34S WCI  -1
ORR            PTSUNNY   10  -2  56 S7        30.28F WCI   0
COOK           PTSUNNY   10   0  61 S9        30.33S WCI  -2
WALKER         FAIR       8  -2  62 S8        30.29F WCI  -4
$$
MNZ012-019>021-037-281700-
   Northeast Minnesota

CITY           SKY/WX    TMP DP  RH WIND       PRES   REMARKS
DULUTH         MOSUNNY    9   0  67 SW14      30.38F WCI  -7
ELY            PTSUNNY    9   0  66 SW8       30.33S WCI  -4
HIBBING        PTSUNNY    8  -3  61 S7        30.35F WCI  -3
EVELETH        PTSUNNY    9   0  66 S7        30.36F WCI  -3
DULUTH HARBOR  MOSUNNY   10   1  67 SW15      30.48F WCI  -6
TWO HARBORS    MOSUNNY   10   1  67 S6        30.40F WCI   1
SILVER BAY     MOSUNNY   12   1  62 S10       30.39S WCI  -1
GRAND MARAIS     N/A     16   9  74 SW17      30.45S WCI   0
G MARAIS ARPRT MOSUNNY   10  -2  56 S8        30.32F WCI  -1
$$
MNZ029>031-032-039>041-046>048-054>057-064-281700-
   West Central Minnesota

CITY           SKY/WX    TMP DP  RH WIND       PRES   REMARKS
FERGUS FALLS   MOSUNNY   12   1  62 S18G26    30.34F WCI  -5
WHEATON        SUNNY     12   3  67 S15G22    30.32F WCI  -4
MORRIS         MOSUNNY   14   3  62 S16       30.33S WCI  -2
ALEXANDRIA     PTSUNNY   10   1  67 S13G23    30.33F WCI  -5
ELBOW LAKE     FAIR      10   3  73 S20       30.31F WCI  -9
WADENA         MOSUNNY    9   1  72 S10       30.31S WCI  -6
APPLETON       SUNNY     16   3  57 S13       30.36S WCI   2
BENSON         MOSUNNY   14   3  62 S14       30.36S WCI  -1
ORTONVILLE     SUNNY     16   3  57 S12       30.32F WCI   3
MADISON        SUNNY     16   7  67 S16       30.35F WCI   0
WILLMAR        FAIR      10   1  67 S6        30.41S WCI   1
$$
MNZ033>034-036-042>043-049>051-058-059-281700-
   Central Minnesota

CITY           SKY/WX    TMP DP  RH WIND       PRES   REMARKS
ST CLOUD       MOSUNNY   10   0  63 S12       30.43F WCI  -5
SAUK CENTRE    FAIR      12   2  64 S15       30.37F WCI  -4
PAYNESVILLE    MOSUNNY    7  -1  69 SE10      30.41S WCI  -7
AITKIN         PTSUNNY   10   0  61 S9        30.37S WCI  -2
PINE RIVER     PTSUNNY    9   1  72 S8        30.36F WCI  -4
BRAINERD       PTSUNNY    9   0  67 S10       30.38R WCI  -5
STAPLES        PTSUNNY    9   0  66 S10       30.34S WCI  -6
LONG PRAIRIE   FAIR      12   3  67 S12       30.36F WCI  -2
LITTLE FALLS   MOSUNNY   10   1  67 S6        30.40F WCI   1
LITCHFIELD     SUNNY      9   1  72 S6        30.43F WCI  -1
BUFFALO        SUNNY      9   0  66 S8        30.49S WCI  -4
MAPLE LAKE     SUNNY     11   2  67 S8        30.46F WCI   0
$$
MNZ037-044-045-052-053-281700-
   East Central Minnesota

CITY           SKY/WX    TMP DP  RH WIND       PRES   REMARKS
PRINCETON      SUNNY     12   1  62 S8        30.45F WCI   1
MORA           MOSUNNY   10   1  67 S10       30.47S WCI  -3
CAMBRIDGE      SUNNY     12   1  62 S9        30.46S WCI   0
RUSH CITY      SUNNY      9   1  69 S9        30.48F WCI  -4
MOOSE LAKE     MOSUNNY   10   1  67 CALM      30.42S
HINCKLEY       FAIR       9   1  72 S9        30.47S WCI  -5
CLOQUET        MOSUNNY    9   0  66 SW12G18   30.41R WCI  -6
MCGREGOR       PTSUNNY   12   3  67 S13       30.39F WCI  -3
$$
MNZ071>073-080-081-089-090-097-098-281700-
   Southwest Minnesota

CITY           SKY/WX    TMP DP  RH WIND       PRES   REMARKS
MONTEVIDEO     SUNNY     16   5  62 SW14      30.39S WCI   1
GRANITE FALLS  SUNNY     12   4  70 SE13      30.41F WCI  -3
CANBY          SUNNY     17   5  60 S13       30.35F WCI   3
MARSHALL       SUNNY     14   3  62 S15       30.39S WCI  -1
REDWOOD FALLS  SUNNY     12   3  67 S13       30.43F WCI  -3
OLIVIA         SUNNY     10   3  72 S10G17    30.41F WCI  -3
PIPESTONE      SUNNY     10   5  79 SW21      30.33F WCI  -9
WINDOM         SUNNY     12   3  67 S15G21    30.41S WCI  -4
WORTHINGTON    SUNNY     16   0  48 S16       30.40F WCI   0
JACKSON        SUNNY     10   1  67 S14       30.43S WCI  -5
TRACY          SUNNY     15   5  65 S16G22    30.38S WCI  -1
SLAYTON        SUNNY     13   3  65 S16       30.36F WCI  -4
$$
MNZ065>067-074>077-082>085-091>093-281700-
   South Central Minnesota

CITY           SKY/WX    TMP DP  RH WIND       PRES   REMARKS
MANKATO        SUNNY      7  -2  66 S12       30.49S WCI  -9
NEW ULM        SUNNY      7  -2  66 S13       30.46F WCI  -9
ST JAMES       SUNNY      9   1  72 S12       30.48S WCI  -6
FAIRMONT       SUNNY      7   1  78 S13       30.46S WCI  -9
GLENCOE        SUNNY     10   3  73 S7        30.47S WCI  -1
FARIBAULT      SUNNY      7  -2  66 S10       30.51F WCI  -8
OWATONNA       SUNNY      7   0  72 S13       30.50S WCI  -9
WASECA         SUNNY      9   1  72 S12       30.51F WCI  -6
ALBERT LEA     SUNNY      3   0  85 S7        30.50F WCI  -9
$$
MNZ078>079-086>088-094>096-281700-
   Southeast Minnesota

CITY           SKY/WX    TMP DP  RH WIND       PRES   REMARKS
ROCHESTER      SUNNY      3  -3  76 S9        30.52F WCI -12
RED WING       SUNNY      9  -2  61 SE6       30.56F WCI  -1
STANTON        SUNNY      9   0  66 S12       30.51F WCI  -6
DODGE CENTER   MOSUNNY    3  -2  78 S14       30.50S WCI -15
WINONA         SUNNY      9   0  66 E5        30.62F WCI   0
AUSTIN         SUNNY      0  -2  92 S7        30.52S WCI -13
PRESTON        SUNNY      2  -2  83 S10       30.55S WCI -14
$$
ABBREVIATIONS USED IN REMARKS
   TC - TEMPERATURES IN CELSIUS
  WCI - WIND CHILL INDEX
   HX - HEAT INDEX
  VSB - VISIBILITY
$$



USA.gov is the U.S. government's official web portal to all federal, state and local government web resources and services.